User: anonymous   Login
Location: Lawrence Hall of Science
(37.8785°N, 122.2415°W)
Time: 00:40:59
(UTC-07:00)
Language:

ARGOS - Orbit

View from above orbital plane
View from above orbital plane
View from above satellite
View from above satellite

Ground track
Ground track

The orbit data is extracted from the following two-line orbital elements,

1 25634U 99008A   14298.74871332  .00000151  00000-0  92746-4 0  2997
2 25634 098.7462 004.6965 0011279 108.2213 043.8731 14.19180522811521
Epoch (UTC): 25 October 2014 17:58:08
Eccentricity: 0.0011279
inclination: 98.7462°
perigee height: 820 km
apogee height: 836 km
right ascension of ascending node: 4.6965°
argument of perigee: 108.2213°
revolutions per day: 14.19180522
mean anomaly at epoch: 43.8731°
orbit number at epoch: 81152

The dashed part of the orbit path shows where the satellite is in the earth's shadow,  

DLR